Modesto, CA

10:55 PM PDT on March 23, 2017 (GMT -0700)
Modesto City-County-Sham

Weather History for KMOD - November, 2012

Change the Weather History Date:

Thursday, November 8, 2012

  Actual Average Record
Temperature  
Mean Temperature 58 °F -  
Max Temperature 65 °F 69 °F 83 °F (1958)
Min Temperature 51 °F 47 °F 33 °F (1935)
Degree Days  
Heating Degree Days 7 7  
Month to date heating degree days 21 50  
Since 1 July heating degree days 80 113  
Cooling Degree Days 0 0  
Month to date cooling degree days 1 0  
Year to date cooling degree days 1710 1696  
Growing Degree Days 6 (Base 50)    
Moisture  
Dew Point 42 °F    
Average Humidity 64    
Maximum Humidity 89    
Minimum Humidity 35    
Precipitation  
Precipitation T in 0.04 in 1.14 in (2002)
Month to date precipitation 0.11 0.32  
Year to date precipitation 7.08 10.03  
Since 1 July precipitation 0.23  
Snow  
Snow 0.00 in - 0.00 in (2002)
Month to date snowfall 0.0  
Since 1 July snowfall 0.0  
Since 1 September snowfall 0.0  
Snow Depth -    
Sea Level Pressure  
Sea Level Pressure 29.91 in    
Wind  
Wind Speed 7 mph (WNW)    
Max Wind Speed 24 mph    
Max Gust Speed 30 mph    
Visibility 10 miles    
Events Rain    
T = Trace of Precipitation, MM = Missing Value Source: NWS Daily Summary

Daily Weather History Graph

Daily Weather History Graph

Search for Another Location

Airport or City:

Trip Planner

Search our weather history database for the weather conditions in past years. The results will help you decide how hot, cold, wet, or windy it might be!

Date:

Astronomy

Nov. 08, 2012 Rise Set
Actual Time 6:36 AM PST 4:57 PM PST
Civil Twilight 6:09 AM PST 5:25 PM PST
Nautical Twilight 5:37 AM PST 5:56 PM PST
Astronomical Twilight 5:07 AM PST 6:27 PM PST
Moon 12:44 AM PST (11/8) 1:35 PM PST (11/8)
Length of Visible Light 11h 16m
Length of Day
10h 20m
Waning Crescent, 32% of the Moon is Illuminated
Nov 8
Waning Crescent
Nov 13
New
Nov 20
First Quarter
Nov 28
Full
Dec 6
Last Quarter

Hourly Weather History & Observations

Time (PST) Temp. Windchill Dew Point Humidity Pressure Visibility Wind Dir Wind Speed Gust Speed Precip Events Conditions
12:53 AM 54.0 °F - 48.9 °F 83% 29.87 in 10.0 mi NE 4.6 mph - N/A   Clear
1:53 AM 53.1 °F - 48.0 °F 83% 29.87 in 10.0 mi Calm Calm - N/A   Clear
2:53 AM 51.1 °F - 48.0 °F 89% 29.85 in 9.0 mi SE 3.5 mph - N/A   Clear
3:39 AM 51.8 °F - 48.2 °F 88% 29.87 in 9.0 mi NNW 4.6 mph - N/A   Scattered Clouds
3:53 AM 51.1 °F - 48.0 °F 89% 29.88 in 9.0 mi NW 3.5 mph - N/A   Partly Cloudy
4:53 AM 52.0 °F - 44.1 °F 74% 29.89 in 10.0 mi NW 8.1 mph - N/A   Scattered Clouds
5:22 AM 53.6 °F - 42.8 °F 67% 29.90 in 10.0 mi WNW 15.0 mph - N/A   Mostly Cloudy
5:53 AM 54.0 °F - 42.1 °F 64% 29.92 in 10.0 mi WNW 13.8 mph - N/A   Overcast
6:42 AM 55.4 °F - 39.2 °F 54% 29.94 in 10.0 mi WNW 17.3 mph - N/A   Overcast
6:53 AM 55.0 °F - 39.9 °F 57% 29.95 in 10.0 mi West 19.6 mph 26.5 mph N/A   Overcast
7:53 AM 55.9 °F - 35.1 °F 45% 29.98 in 10.0 mi West 16.1 mph 24.2 mph N/A   Mostly Cloudy
9:53 AM 61.0 °F - 34.0 °F 36% 29.98 in 10.0 mi WNW 12.7 mph - N/A   Clear
10:53 AM 62.1 °F - 35.1 °F 37% 29.97 in 10.0 mi NW 8.1 mph - N/A   Clear
11:53 AM 62.1 °F - 36.0 °F 38% 29.94 in 10.0 mi WNW 10.4 mph - N/A   Partly Cloudy
12:53 PM 64.0 °F - 36.0 °F 35% 29.91 in 10.0 mi NW 11.5 mph - N/A   Clear
1:53 PM 64.0 °F - 36.0 °F 35% 29.88 in 10.0 mi Calm Calm - N/A   Partly Cloudy
2:53 PM 63.0 °F - 35.1 °F 35% 29.87 in 10.0 mi SSW 5.8 mph - N/A   Overcast
3:53 PM 57.9 °F - 42.1 °F 56% 29.88 in 10.0 mi NW 15.0 mph - 0.00 in Rain Light Rain
4:53 PM 53.1 °F - 46.0 °F 77% 29.89 in 10.0 mi West 13.8 mph 23.0 mph 0.01 in Rain Light Rain
5:53 PM 53.1 °F - 46.0 °F 77% 29.89 in 10.0 mi West 8.1 mph - 0.00 in   Overcast
6:53 PM 53.1 °F - 44.1 °F 71% 29.89 in 10.0 mi West 3.5 mph - 0.01 in   Overcast
7:53 PM 51.1 °F - 42.1 °F 71% 29.90 in 10.0 mi NW 5.8 mph - N/A   Overcast
8:53 PM 51.1 °F - 42.1 °F 71% 29.91 in 10.0 mi NW 4.6 mph - N/A   Clear
9:53 PM 50.0 °F - 41.0 °F 71% 29.92 in 10.0 mi WNW 6.9 mph - N/A   Clear
10:53 PM 48.0 °F - 39.0 °F 71% 29.93 in 10.0 mi NNE 3.5 mph - N/A   Clear
11:53 PM 44.1 °F 42.5 °F 41.0 °F 89% 29.94 in 10.0 mi SE 3.5 mph - N/A   Clear